Flag for Romania Weather past 2 weeks in Oradea, Romania

Now
55 °F

Cool.


Feels Like: 54 °F
Forecast: 50 / 75 °F
Wind: 7 mph from Southeast

Location: Oradea Airport

Current Time: May 29, 2015 at 11:38:25 PM

Latest Report: May 29, 2015 at 11:00 PM


Visibility: N/A

Pressure: 29.98 "Hg

Humidity: 72%

Dew point: 46 °F

Location of OradeaLocation

Historic Weather in Oradea — Graph

°F

Oradea temperature yesterday

Maximum temperature yesterday: 61 °F (at 1:00 PM)
Minimum temperature yesterday: 48 °F (at 6:00 AM)
Average temperature yesterday: 55 °F

Past Weeks' High & Low Weather Summary

 TemperatureHumidityPressure
High84 °F (May 19, 4:30 PM)100% (May 24, 5:00 AM)30.15 "Hg (May 24, 5:00 AM)
Low45 °F (May 18, 5:30 AM)29% (May 18, 3:30 PM)29.68 "Hg (May 27, 1:00 AM)
Average62 °F71%29.94 "Hg
* Reported May 14 10:00 PM — May 29 10:30 PM, Oradea, Weather by CustomWeather, © 2015

Note: Actual official high and low records may vary slightly from our data, if they occured in-between our weather recording intervals... More about our weather records

Advertising

Oradea weather history for previous 24 hours

 ConditionsComfort  
Time TempWeatherWind HumidityBarometerVisibility
10:30 PM
Fri, May 29
55 °FCool.7 mph77%29.98 "HgN/A
10:00 PM57 °FCool.7 mph72%29.98 "HgN/A
9:30 PM57 °FCool.8 mph72%29.98 "HgN/A
9:00 PM59 °FSunny.6 mph72%29.98 "Hg10 mi
8:30 PM64 °FSunny.5 mph56%29.98 "Hg10 mi
8:00 PM66 °FPassing clouds.6 mph49%29.98 "HgN/A
7:30 PM68 °FPassing clouds.6 mph43%29.98 "HgN/A
7:00 PM68 °FPassing clouds.7 mph43%29.98 "HgN/A
6:30 PM68 °FPassing clouds.5 mph43%29.98 "HgN/A
6:00 PM70 °FPassing clouds.5 mph43%29.98 "HgN/A
5:30 PM68 °FPassing clouds.3 mph43%29.98 "HgN/A
5:00 PM68 °FPassing clouds.8 mph43%29.98 "HgN/A
4:30 PM68 °FPassing clouds.6 mph43%29.98 "HgN/A
4:00 PM66 °FPassing clouds.5 mph46%30.01 "HgN/A
3:30 PM66 °FScattered clouds.6 mph49%30.01 "HgN/A
3:00 PM66 °FScattered clouds.8 mph49%30.01 "HgN/A
2:30 PM66 °FPassing clouds.5 mph46%30.01 "HgN/A
2:00 PM64 °FPassing clouds.5 mph49%30.04 "HgN/A
1:30 PM63 °FPassing clouds.7 mph49%30.04 "HgN/A
1:00 PM63 °FPassing clouds.6 mph49%30.04 "HgN/A
12:30 PM63 °FPartly sunny.5 mph52%30.04 "HgN/A
12:00 PM61 °FPassing clouds.6 mph52%30.04 "HgN/A
11:30 AM61 °FPassing clouds.5 mph48%30.04 "HgN/A
11:00 AM63 °FScattered clouds.6 mph56%30.04 "HgN/A
10:30 AM61 °FPassing clouds.6 mph59%30.04 "HgN/A
10:00 AM59 °FPassing clouds.5 mph63%30.04 "HgN/A
9:30 AM59 °FSunny.2 mph68%30.04 "Hg10 mi
9:00 AM57 °FPassing clouds.2 mph72%30.04 "HgN/A
8:30 AM54 °FPassing clouds.3 mph77%30.04 "HgN/A
8:00 AM52 °FPassing clouds.5 mph77%30.04 "HgN/A
7:30 AM50 °FPassing clouds.6 mph82%30.01 "HgN/A
6:30 AM48 °FPassing clouds.6 mph87%30.04 "HgN/A
6:00 AM48 °FOvercast.5 mph87%30.04 "HgN/A
5:30 AM48 °FPassing clouds.5 mph87%30.04 "HgN/A
5:00 AM48 °FPassing clouds.5 mph87%30.01 "HgN/A
4:00 AM48 °FOvercast.7 mph87%30.04 "HgN/A
3:00 AM48 °FPassing clouds.6 mph94%30.04 "HgN/A
2:00 AM48 °FPassing clouds.5 mph87%30.04 "HgN/A
1:00 AM50 °FOvercast.3 mph88%30.04 "HgN/A
12:00 AM48 °FPassing clouds.1 mph94%30.04 "HgN/A
11:30 PM
Thu, May 28
48 °FPassing clouds.2 mph87%30.04 "HgN/A
11:00 PM48 °FPassing clouds.3 mph87%30.04 "HgN/A
Weather by CustomWeather, © 2015

See weather overviewHow to use our weather pages